Weather History for KNTU - August, 2014

Change the Weather History Date:

Wednesday, August 20, 2014

  Actual Average Record
Temperature  
Mean Temperature 78 °F -  
Max Temperature 82 °F 82 °F 93 °F (2006)
Min Temperature 73 °F 67 °F 60 °F (1998)
Cooling Degree Days 12    
Growing Degree Days 28 (Base 50)    
Moisture  
Dew Point 70 °F    
Average Humidity 79    
Maximum Humidity 91    
Minimum Humidity 62    
Precipitation  
Precipitation 0.00 in - - ()
Sea Level Pressure  
Sea Level Pressure 29.94 in    
Wind  
Wind Speed 7 mph (ENE)    
Max Wind Speed 10 mph    
Max Gust Speed -    
Visibility 10 miles    
Events Rain    
Averages and records for this station are not official NWS values.
T = Trace of Precipitation, MM = Missing Value Source: NWS Daily Summary

Daily Weather History Graph

Daily Weather History Graph

Search for Another Location

Airport or City:

Trip Planner

Search our weather history database for the weather conditions in past years. The results will help you decide how hot, cold, wet, or windy it might be!

Date:

Astronomy

Aug. 20, 2014 Rise Set
Actual Time 6:25 AM EDT 7:49 PM EDT
Civil Twilight 5:58 AM EDT 8:16 PM EDT
Nautical Twilight 5:25 AM EDT 8:48 PM EDT
Astronomical Twilight 4:51 AM EDT 9:22 PM EDT
Moon 2:06 AM EDT (8/20) 4:29 PM EDT (8/20)
Length of Visible Light 14h 18m
Length of Day
13h 23m
Waning Crescent, 21% of the Moon is Illuminated
Aug 20
Waning Crescent
Aug 25
New
Sep 2
First Quarter
Sep 8
Full
Sep 15
Last Quarter

Hourly Weather History & Observations

Time (EDT) Temp. Heat Index Dew Point Humidity Pressure Visibility Wind Dir Wind Speed Gust Speed Precip Events Conditions
12:14 AM 75.9 °F - 72.0 °F 87% 29.88 in 10.0 mi NE 6.9 mph - 0.00 in   Overcast
12:25 AM 75.9 °F - 72.0 °F 87% 29.88 in 9.0 mi NE 8.1 mph - 0.00 in Rain Light Rain
12:35 AM 75.9 °F - 72.0 °F 87% 29.88 in 10.0 mi NE 8.1 mph - 0.00 in   Overcast
12:56 AM 75.0 °F - 72.0 °F 90% 29.89 in 10.0 mi NE 9.2 mph - 0.00 in   Mostly Cloudy
1:18 AM 75.0 °F - 71.1 °F 87% 29.87 in 10.0 mi NNE 6.9 mph - N/A   Mostly Cloudy
1:56 AM 75.0 °F - 71.1 °F 87% 29.87 in 10.0 mi NE 8.1 mph - N/A   Scattered Clouds
2:56 AM 73.9 °F - 71.1 °F 91% 29.87 in 10.0 mi NE 5.8 mph - N/A   Clear
3:56 AM 73.9 °F - 71.1 °F 91% 29.88 in 10.0 mi NNE 4.6 mph - N/A   Clear
4:16 AM 73.9 °F - 71.1 °F 91% 29.87 in 10.0 mi NNE 5.8 mph - N/A   Mostly Cloudy
4:56 AM 75.0 °F - 71.1 °F 87% 29.88 in 10.0 mi NE 6.9 mph - N/A   Mostly Cloudy
5:44 AM 75.0 °F - 70.0 °F 84% 29.89 in 10.0 mi NE 9.2 mph - N/A   Overcast
5:56 AM 75.0 °F - 70.0 °F 84% 29.90 in 10.0 mi NE 6.9 mph - N/A   Overcast
6:56 AM 75.0 °F - 69.1 °F 82% 29.93 in 10.0 mi NE 9.2 mph - N/A   Mostly Cloudy
7:14 AM 75.0 °F - 69.1 °F 82% 29.92 in 10.0 mi NE 6.9 mph - N/A   Mostly Cloudy
7:56 AM 78.1 °F - 69.1 °F 74% 29.94 in 10.0 mi NNE 5.8 mph - N/A   Scattered Clouds
8:56 AM 78.1 °F - 69.1 °F 74% 29.96 in 10.0 mi ENE 9.2 mph - N/A   Scattered Clouds
9:24 AM 77.0 °F - 70.0 °F 79% 29.96 in 10.0 mi NE 9.2 mph - N/A   Mostly Cloudy
9:56 AM 79.0 °F - 69.1 °F 72% 29.98 in 10.0 mi ENE 9.2 mph - N/A   Mostly Cloudy
10:18 AM 80.1 °F 82.9 °F 69.1 °F 69% 29.98 in 10.0 mi NE 8.1 mph - N/A   Mostly Cloudy
10:56 AM 79.0 °F - 66.9 °F 66% 29.99 in 10.0 mi NE 9.2 mph - N/A   Mostly Cloudy
11:56 AM 81.0 °F 84.1 °F 69.1 °F 67% 30.00 in 10.0 mi ENE 5.8 mph - N/A   Scattered Clouds
12:16 PM 82.0 °F 85.5 °F 69.1 °F 65% 29.99 in 10.0 mi Variable 5.8 mph - N/A   Mostly Cloudy
12:56 PM 82.0 °F 84.9 °F 68.0 °F 62% 29.99 in 10.0 mi NE 5.8 mph - N/A   Scattered Clouds
1:56 PM 82.0 °F 85.5 °F 69.1 °F 65% 29.99 in 10.0 mi East 9.2 mph - N/A   Scattered Clouds
2:56 PM 80.1 °F 82.9 °F 69.1 °F 69% 29.97 in 10.0 mi East 8.1 mph - N/A   Scattered Clouds
3:56 PM 81.0 °F 84.1 °F 69.1 °F 67% 29.97 in 10.0 mi ENE 10.4 mph - N/A   Scattered Clouds
4:56 PM 79.0 °F - 69.1 °F 72% 29.98 in 10.0 mi East 8.1 mph - N/A   Scattered Clouds
5:56 PM 79.0 °F - 69.1 °F 72% 29.99 in 10.0 mi ESE 9.2 mph - N/A   Scattered Clouds
6:56 PM 77.0 °F - 69.1 °F 76% 29.98 in 10.0 mi East 8.1 mph - N/A   Scattered Clouds
7:56 PM 75.0 °F - 69.1 °F 82% 29.99 in 10.0 mi East 5.8 mph - N/A   Scattered Clouds
8:56 PM 75.0 °F - 69.1 °F 82% 30.00 in 10.0 mi East 5.8 mph - N/A   Scattered Clouds
9:56 PM 75.0 °F - 68.0 °F 79% 30.01 in 10.0 mi SE 4.6 mph - N/A   Scattered Clouds
10:56 PM 73.9 °F - 69.1 °F 85% 30.01 in 10.0 mi SSE 6.9 mph - N/A   Scattered Clouds
11:56 PM 73.9 °F - 69.1 °F 85% 30.03 in 10.0 mi Calm Calm - N/A   Scattered Clouds